User: anonymous   Login
Location: Great Northern Moose Lodge
(44.6765°N, 71.1811°W)
Time: 18:13:14
(UTC-04:00)
Language:

Terra - Orbit

View from above orbital plane
View from above orbital plane
View from above satellite
View from above satellite

Ground track
Ground track

The orbit data is extracted from the following two-line orbital elements,

1 25994U 99068A   15117.47110308  .00000519  00000-0  12522-3 0  9990
2 25994 098.2135 192.7281 0001190 089.3449 270.7889 14.57082114816837
Epoch (UTC): 27 April 2015 11:18:23
Eccentricity: 0.0001190
inclination: 98.2135°
perigee height: 702 km
apogee height: 703 km
right ascension of ascending node: 192.7281°
argument of perigee: 89.3449°
revolutions per day: 14.57082114
mean anomaly at epoch: 270.7889°
orbit number at epoch: 81683

The dashed part of the orbit path shows where the satellite is in the earth's shadow,  

DLR